Location: Dhuisy
(49.0389°N, 3.1608°E)
Time: 09:17:21
(UTC+00:00)

Daily predictions for brighter satellites

Satellite Brightness Start Highest point End
(mag) Time Altitude Azimuth Time Altitude Azimuth Time Altitude Azimuth
Meteor 2-17 Rocket 4.5 17:08:35 10° N 17:14:46 72° ENE 17:20:54 10° SSE
Cosmos 1408 3.6 17:15:56 10° SE 17:18:39 23° E 17:21:25 10° NE
Cosmos 1703 3.1 17:15:25 10° S 17:19:14 79° E 17:23:04 10° NNE
NOAA 6 4.0 17:14:29 10° SSE 17:19:35 67° ENE 17:24:44 10° N
Cosmos 2279 Rocket 4.2 17:16:17 10° SSW 17:22:28 80° W 17:28:44 10° N
SL-16 R/B 3.2 17:18:15 10° SSE 17:22:50 26° ESE 17:27:28 10° NE
ARGOS 3.9 17:19:00 10° S 17:24:17 61° W 17:29:38 10° NNW
Timation 2 Rocket 4.0 17:18:28 10° NNW 17:24:40 75° ENE 17:31:07 10° SE
SKYMED 2 4.3 17:21:47 10° NNE 17:25:45 33° E 17:29:41 10° SSE
Cosmos 1340 Rocket 3.1 17:23:28 10° SSE 17:27:08 43° E 17:30:51 10° NNE
ATLAS CENTAUR R/B 1.7 17:23:28 10° SSW 17:28:11 74° SE 17:32:44 10° NE
Cosmos 1825 3.9 17:26:48 10° ESE 17:28:40 14° E 17:30:33 10° NE
BlueWalker 3 2.1 17:26:57 10° WSW 17:30:48 70° NNW 17:34:32 11° ENE
NOSS 2-1 (C) 4.4 17:26:54 10° NW 17:31:10 67° SW 17:37:12 10° SSE
ISS -3.6 17:29:58 10° WNW 17:33:20 76° SSW 17:36:42 10° ESE
ATLAS 5 CENTAUR R/B 3.4 17:30:24 10° WNW 17:33:22 20° NNW 17:36:41 10° NNE
Cosmos 1025 Rocket 4.2 17:29:48 10° SSW 17:33:53 44° WNW 17:38:01 10° N
BREEZE-M DEB (TANK) 2.9 17:31:44 10° WSW 17:34:37 54° SSE 17:40:27 10° E
Cosmos 44 3.6 17:30:29 10° SW 17:34:45 58° NW 17:39:15 10° NNE
Cosmos 2369 3.9 17:29:55 10° SSW 17:35:34 77° WNW 17:41:17 10° NNE
Cosmos 1607 3.9 17:30:38 10° SSW 17:36:44 80° SE 17:42:58 10° NE
Cosmos 1980 Rocket 2.4 17:31:33 10° SW 17:37:12 75° WNW 17:42:56 10° NNE
YAOGAN 1 3.4 17:36:03 10° SE 17:39:44 28° ENE 17:43:27 10° N
Radarsat Rocket 4.2 17:34:50 10° SSE 17:40:51 90° NW 17:47:35 10° NNW
Cosmos 1697 Rocket 4.0 17:38:22 10° WSW 17:43:39 39° NW 17:48:57 10° NNE
ADEOS 4.2 17:41:57 10° S 17:47:06 60° WSW 17:52:17 10° NNW
USA 290 2.5 17:45:13 10° SSW 17:48:26 70° WNW 17:51:40 10° NNE
Cosmos 1536 Rocket 3.4 17:45:36 10° S 17:49:53 73° E 17:54:14 10° NNE
APEX 4.5 17:44:33 10° S 17:50:25 51° ESE 17:55:55 10° NE
Cosmos 2263 Rocket 3.1 17:45:20 10° NW 17:50:45 53° WSW 17:56:07 10° S
Cosmos 1340 4.3 17:49:06 10° NNE 17:50:51 15° NE 17:50:51 15° NE
Cosmos 2251 Rocket 3.9 17:55:31 10° SSW 18:00:51 70° WNW 18:06:15 10° NNE
Cosmos 1606 Rocket 3.6 17:57:28 10° N 18:01:42 51° ENE 18:05:54 10° SSE
Cosmos 1763 Rocket 3.4 17:58:18 10° NNW 18:03:30 62° ENE 18:08:33 10° SE
PSLV R/B 3.8 18:01:47 10° SSE 18:05:18 50° ENE 18:08:55 10° N
YAOGAN 3 4.5 18:02:17 10° SSE 18:06:37 76° ENE 18:10:59 10° N
Cosmos 1328 3.8 18:04:02 10° S 18:08:01 84° W 18:12:00 10° N
CZ-4 R/B 2.0 18:05:34 10° SE 18:09:17 33° ENE 18:12:58 10° N
IGS 5A 4.5 18:10:16 24° ENE 18:10:34 24° ENE 18:13:54 10° N
Meteor 1-11 4.3 18:04:55 10° S 18:10:34 56° E 18:16:14 10° NNE
ATLAS 2AS CENTAUR R/B 2.7 18:03:37 10° NW 18:10:45 83° NE 18:17:26 10° SE
Cosmos 2228 3.2 18:06:32 10° NNW 18:10:46 74° W 18:14:58 10° S
Lacrosse 5 rocket 1.8 18:08:37 10° NW 18:11:57 36° NNE 18:13:08 28° ENE
MOS 1-B 4.4 18:06:37 10° SE 18:12:18 60° ENE 18:18:01 10° N
Cosmos 1892 Rocket 4.1 18:09:45 10° SSE 18:13:44 34° E 18:17:33 11° NNE
COSMO-SKYMED 1 2.6 18:09:32 10° NNE 18:13:55 83° WNW 18:18:15 10° SSW
Cosmos 841 Rocket 4.1 18:09:10 10° N 18:13:58 34° NE 18:16:40 21° ESE
Cosmos 1244 Rocket 4.5 18:11:19 10° N 18:17:39 64° ENE 18:23:52 10° SSE
CZ-4B DEB 4.3 18:13:10 10° SSE 18:18:37 78° WSW 18:24:07 10° NNW
MINOTAUR 4 R/B 4.4 18:19:37 35° ENE 18:20:10 38° E 18:23:22 10° S
Cosmos 1844 Rocket 2.6 18:16:39 10° NNW 18:22:14 67° ENE 18:27:46 10° SE
RESURS DK-1 2.7 18:18:33 10° NNW 18:22:30 42° NE 18:23:47 32° E
Cosmos 724 4.4 18:17:04 10° SW 18:23:00 78° NW 18:28:28 13° NE
Cosmos 540 Rocket 3.4 18:18:27 10° NNW 18:23:34 60° ENE 18:28:38 10° SE
CZ-4B R/B 3.1 18:18:24 10° SSE 18:23:40 66° ENE 18:29:05 10° N
CZ-4C R/B 3.5 18:21:54 10° N 18:25:48 70° WNW 18:29:29 10° SSW
Cosmos 1745 Rocket 4.3 18:25:11 10° N 18:31:08 43° ENE 18:36:59 10° SE
Cosmos 1844 3.7 18:25:58 10° NNW 18:31:47 69° ENE 18:37:20 11° SE
NOAA 15 4.5 18:28:02 10° SSE 18:33:17 85° ENE 18:38:36 10° NNW
Cosmos 676 Rocket 3.9 18:28:53 10° S 18:34:09 68° ESE 18:38:26 16° NNE
Cosmos 1726 Rocket 3.4 18:30:22 10° N 18:34:43 85° E 18:39:01 10° S
Cosmos 2278 4.4 18:30:54 10° SW 18:36:28 55° NW 18:42:05 10° NNE
Gblst 52 Del rocket 4.1 18:31:04 10° WSW 18:36:39 72° SSE 18:39:00 35° ENE
Lacrosse 5 2.0 18:31:43 10° SSW 18:36:40 54° SE 18:38:20 37° E
Cosmos 407 Rocket 4.3 18:32:09 10° SW 18:37:08 49° WNW 18:42:08 10° NNE
IRIDIUM 106 4.2 18:32:30 10° N 18:37:43 64° E 18:42:53 10° SSE
Okean-O 4.4 18:40:05 17° NNE 18:40:05 17° NNE 18:41:32 10° N
Okean O Rocket 1.5 18:34:53 10° SSE 18:39:12 63° ENE 18:43:35 10° N
COSMOS 2455 4.1 18:33:46 10° WSW 18:39:17 36° NW 18:44:52 10° NNE
Cosmos 2360 Rocket 2.3 18:37:06 10° S 18:42:32 51° ESE 18:44:47 32° NE
Feng Yun 1-1 Rocket 4.1 18:37:35 10° SSE 18:43:06 65° ENE 18:48:31 10° N
Cosmos 2333 Rocket 2.7 18:38:49 10° S 18:43:53 35° ESE 18:43:55 35° ESE
Cosmos 2219 Rocket 3.7 18:39:41 10° SSE 18:41:44 19° SE 18:41:44 19° SE
Cosmos 1892 3.5 18:42:51 10° SSW 18:46:28 49° WNW 18:50:08 10° N
Cosmos 2278 Rocket 3.6 18:43:40 10° N 18:47:29 21° NNE 18:47:29 21° NNE
Cosmos 1709 Rocket 4.3 18:44:10 10° N 18:49:54 38° ENE 18:50:12 38° ENE
Cosmos 2322 Rocket 2.1 18:47:40 10° SSW 18:53:16 85° ESE 18:56:48 24° NNE
SL-4 R/B 2.0 18:49:59 10° WNW 18:53:25 55° N 18:53:25 55° N
Cosmos 1553 Rocket 3.8 18:50:52 10° S 18:56:56 80° E 19:03:07 10° N
Cosmos 1417 Rocket 4.4 18:53:47 10° S 18:59:58 63° E 19:06:06 10° NNE
Cosmos 1633 3.0 18:57:43 10° SSW 19:00:26 52° SW 19:00:26 52° SW
Cosmos 1825 2.9 18:59:48 10° SSW 19:03:24 50° WNW 19:05:43 20° N
SL-16 R/B 2.7 19:00:58 10° SW 19:06:33 59° WNW 19:10:52 17° NNE
Cosmos 2058 Rocket 3.1 19:02:28 10° NNW 19:06:53 80° W 19:09:52 20° S
Cosmos 2333 4.4 19:01:32 10° S 19:06:20 48° SE 19:06:20 48° SE
ATLAS CENTAUR R/B 3.5 19:03:17 10° W 19:07:09 25° NW 19:09:14 18° N
ISS -1.3 19:07:20 10° W 19:09:39 17° SW 19:10:24 16° SSW
BlueWalker 3 2.9 19:06:05 10° WNW 19:09:19 41° NNW 19:09:19 41° NNW
CSL-04 Debris 4.0 19:12:46 54° SE 19:13:59 74° ENE 19:19:22 10° NNW
YAOGAN 1 4.2 19:11:46 10° SSW 19:15:42 34° W 19:19:41 10° NNW
Cosmos 1461 3.2 19:14:14 10° SW 19:17:57 67° SW 19:17:57 67° SW
ATLAS 5 CENTAUR R/B 3.9 19:17:11 10° NNW 19:19:29 14° N 19:19:29 14° N
CSL-04 Rocket 3.4 19:22:03 77° E 19:22:08 77° ENE 19:27:32 10° NNW
Cosmos 1980 Rocket 4.5 19:18:15 10° W 19:22:14 19° NW 19:26:14 10° N
Cosmos 1869 4.4 19:20:37 10° NNW 19:24:18 42° W 19:25:47 28° SW
Cosmos 1340 4.4 19:23:21 10° NNW 19:25:20 28° NW 19:25:20 28° NW
CZ-2C R/B 3.6 19:30:39 65° E 19:30:41 65° E 19:43:42 10° S
S3M 3.9 19:24:39 10° S 19:31:03 86° E 19:37:29 10° N
Cosmos 1943 Rocket 4.2 19:33:21 10° N 19:35:14 16° N 19:35:14 16° N
CZ-4 R/B 3.5 19:40:42 10° SSW 19:44:12 26° W 19:47:41 10° NW
Lacrosse 5 rocket 3.7 19:47:24 10° WNW 19:48:32 19° WNW 19:48:32 19° WNW
Okean O Rocket 4.4 20:13:14 10° SW 20:15:58 16° W 20:18:44 10° NW
Lacrosse 5 3.6 20:14:47 10° W 20:17:34 30° W 20:17:34 30° W
Cosmos 2360 Rocket 3.6 20:21:39 10° WSW 20:26:37 34° NW 20:26:37 34° NW
Cosmos 2219 Rocket 4.3 20:22:08 10° SW 20:23:32 18° SW 20:23:32 18° SW
Cosmos 2333 Rocket 3.6 20:22:36 10° SW 20:26:00 33° WSW 20:26:00 33° WSW
Cosmos 2278 Rocket 4.0 20:27:10 10° NNW 20:29:20 24° NNW 20:29:20 24° NNW
Cosmos 2322 Rocket 4.2 20:33:40 10° W 20:38:03 23° NW 20:38:40 22° NNW
